KOREASAT 7

Last updated on May 21, 2019, 3:10 a.m. UTC

1 42691U 17023A   19140.04599234 -.00000372  00000-0  00000+0 0  9998
2 42691   0.0285  72.3205 0001679 346.7093 310.8517  1.00271998  7529
UTC
Height (km)
Latitude
Longitude
Inclination
Orbital Period
UTC large
Height (km)
Speed (km/s)
/
Latitude / Longitude
Inclination (degrees)
Orbital Period (minutes)
Azimuth
Elevation
Range (km)
Doppler Factor
iOS Compass Heading
iOS Angle

Next 30 passes for location: Hong Kong

Rise time Rise Azimuth (degrees) Set time Set Azimuth (degrees) Duration Max altitude (degrees)

No matching passes for this satellites